{"data":{"norad_id":53134,"epoch":"2026-09-19T21:39:02.297952Z","epoch_age_seconds":123878,"freshness":"FRESH","line1":"1 53134U 22083C   26262.90210993  .00001576  00000+0  57796-4 0  9998","line2":"2 53134  53.1617   8.4071 0001129  81.6535 278.4596 15.34388262230729","mean_motion":15.34388262,"eccentricity":0.0001129,"inclination_deg":53.1617,"raan_deg":8.4071,"arg_perigee_deg":81.6535,"mean_anomaly_deg":278.4596,"bstar":5.7796e-5,"rev_number":23072,"period_min":93.84847601239,"perigee_km":461.96579343721,"apogee_km":463.51046304116,"semimajor_km":6840.8751282392,"source":"CELESTRAK","updated_at":"2026-09-20T09:00:40.178540Z"}}